Flag Weather past 2 weeks in Hartberg, Styria, Austria

Now
43 °F

Sunny.


Feels Like: 39 °F
Forecast: 31 / 46 °F
Wind: 6 mph from South

Location: Graz-Thalerhof-Flughafen

Current Time: Nov 22, 2014 at 4:34:11 PM

Latest Report: Nov 22, 2014 at 3:50 PM


Visibility: 10 mi

Pressure: 30.27 "Hg

Humidity: 87%

Dew point: 39 °F

Location of HartbergLocation

Historic Weather in Hartberg — Graph

°F

Hartberg temperature yesterday

Maximum temperature yesterday: 48 °F (at 12:50 PM)
Minimum temperature yesterday: 39 °F (at 3:20 AM)
Average temperature yesterday: 43 °F

Past Weeks' High & Low Weather Summary

 TemperatureHumidityPressure
High64 °F (Nov 11, 2:50 PM)100% (Nov 7, 3:20 PM)30.30 "Hg (Nov 7, 3:20 PM)
Low32 °F (Nov 20, 3:50 AM)58% (Nov 20, 1:20 PM)29.65 "Hg (Nov 16, 2:50 AM)
Average49 °F92%29.94 "Hg
* Reported Nov 7 3:20 PM — Nov 22 3:20 PM, Hartberg, Weather by CustomWeather, © 2014

Note: Actual official high and low records may vary slightly from our data, if they occured in-between our weather recording intervals... More about our weather records

Advertising

Hartberg weather history for previous 24 hours

 ConditionsComfort  
Time TempWeatherWind HumidityBarometerVisibility
3:20 PM
Nov 22
46 °FPartly sunny.5 mph76%30.24 "HgN/A
2:50 PM46 °FPartly sunny.6 mph76%30.24 "HgN/A
2:20 PM46 °FScattered clouds.5 mph76%30.24 "HgN/A
1:50 PM48 °FScattered clouds.3 mph71%30.24 "HgN/A
1:20 PM48 °FScattered clouds.3 mph71%30.24 "HgN/A
12:50 PM46 °FScattered clouds.3 mph71%30.24 "HgN/A
12:20 PM46 °FScattered clouds.5 mph71%30.24 "HgN/A
11:50 AM46 °FScattered clouds.2 mph71%30.24 "HgN/A
11:20 AM45 °FPassing clouds.2 mph81%30.27 "Hg6 mi
10:50 AM43 °FPassing clouds.2 mph87%30.27 "Hg6 mi
10:20 AM43 °FScattered clouds.2 mph87%30.27 "Hg4 mi
9:50 AM41 °FFog.3 mph93%30.27 "Hg3 mi
9:20 AM41 °FFog.3 mph93%30.27 "Hg3 mi
8:50 AM39 °FFog.2 mph93%30.24 "Hg2 mi
8:20 AM37 °FFog.2 mph100%30.24 "Hg3 mi
7:50 AM39 °FFog.2 mph93%30.24 "Hg3 mi
7:20 AM37 °FFog.2 mph100%30.24 "Hg3 mi
6:50 AM37 °FChilly.1 mph93%30.21 "Hg2 mi
6:20 AM37 °FChilly.No wind93%30.21 "Hg2 mi
5:50 AM37 °FPassing clouds.2 mph93%30.21 "Hg6 mi
5:20 AM39 °FPassing clouds.1 mph100%30.21 "HgN/A
4:50 AM41 °FPassing clouds.1 mph93%30.21 "HgN/A
4:20 AM41 °FPassing clouds.1 mph93%30.21 "HgN/A
3:50 AM41 °FPartly cloudy.2 mph93%30.21 "HgN/A
3:20 AM41 °FPartly cloudy.1 mph93%30.24 "HgN/A
2:50 AM41 °FPartly cloudy.2 mph93%30.24 "HgN/A
2:20 AM41 °FPassing clouds.1 mph93%30.24 "HgN/A
1:50 AM43 °FPassing clouds.1 mph87%30.24 "HgN/A
1:20 AM43 °FPassing clouds.1 mph87%30.24 "HgN/A
12:50 AM43 °FPassing clouds.1 mph87%30.24 "HgN/A
12:20 AM43 °FPassing clouds.1 mph87%30.24 "HgN/A
11:50 PM
Nov 21
43 °FOvercast.3 mph87%30.24 "HgN/A
11:20 PM43 °FOvercast.1 mph81%30.24 "HgN/A
10:50 PM43 °FOvercast.2 mph81%30.24 "HgN/A
10:20 PM43 °FOvercast.2 mph81%30.24 "HgN/A
9:50 PM43 °FOvercast.2 mph81%30.24 "HgN/A
9:20 PM43 °FOvercast.1 mph76%30.24 "HgN/A
8:50 PM43 °FOvercast.1 mph81%30.24 "HgN/A
8:20 PM45 °FOvercast.2 mph66%30.24 "HgN/A
7:50 PM45 °FOvercast.2 mph66%30.24 "HgN/A
7:20 PM43 °FOvercast.No wind76%30.24 "HgN/A
6:50 PM43 °FPartly cloudy.1 mph76%30.24 "HgN/A
6:20 PM45 °FPartly cloudy.2 mph66%30.24 "HgN/A
5:50 PM45 °FPartly cloudy.2 mph71%30.24 "HgN/A
5:20 PM45 °FPassing clouds.2 mph66%30.24 "HgN/A
4:50 PM45 °FPassing clouds.2 mph71%30.24 "HgN/A
4:20 PM46 °FPassing clouds.2 mph71%30.24 "HgN/A
Weather by CustomWeather, © 2014

See weather overviewHow to use our weather pages